Weather History for Columbus AFB, MS

Change the Weather History Date:

Friday, February 15, 2013

  Actual Average Record
Temperature  
Mean Temperature 45 °F -  
Max Temperature 59 °F 58 °F 80 °F (2001)
Min Temperature 31 °F 38 °F 24 °F (2007)
Degree Days  
Heating Degree Days 20    
Moisture  
Dew Point 34 °F    
Average Humidity 68    
Maximum Humidity 99    
Minimum Humidity 37    
Precipitation  
Precipitation 0.00 in - - ()
Sea Level Pressure  
Sea Level Pressure 30.14 in    
Wind  
Wind Speed 6 mph (NNW)    
Max Wind Speed 16 mph    
Max Gust Speed 17 mph    
Visibility 10 miles    
Events      
Averages and records for this station are not official NWS values.
T = Trace of Precipitation, MM = Missing Value Source: NWS Daily Summary

Daily Weather History Graph

Daily Weather History Graph

Search for Another Location

Airport:

Trip Planner

Search our weather history database for the weather conditions in past years. The results will help you decide how hot, cold, wet, or windy it might be!

Date:

Astronomy

Feb. 15, 2013 Rise Set
Actual Time 6:37 AM CST 5:38 PM CST
Civil Twilight 6:12 AM CST 6:03 PM CST
Nautical Twilight 5:43 AM CST 6:33 PM CST
Astronomical Twilight 5:14 AM CST 7:02 PM CST
Moon 9:32 AM CST (2/15) 11:18 PM CST (2/15)
Length of Visible Light 11h 51m
Length of Day
11h 00m
Waxing Crescent, 30% of the Moon is Illuminated
Feb 15
Waxing Crescent
Feb 17
First Quarter
Feb 25
Full
Mar 4
Last Quarter
Mar 11
New

Hourly Weather History & Observations

Time (CST) Temp. Windchill Dew Point Humidity Pressure Visibility Wind Dir Wind Speed Gust Speed Precip Events Conditions
12:58 AM 35.4 °F 30.5 °F 35.1 °F 99% 30.10 in 10.0 mi SE 5.8 mph - N/A   Clear
1:58 AM 34.3 °F - 34.0 °F 99% 30.10 in 10.0 mi SE 2.3 mph - N/A   Clear
2:58 AM 33.1 °F - 32.9 °F 99% 30.11 in 10.0 mi Calm Calm - N/A   Clear
3:58 AM 33.6 °F - 33.3 °F 99% 30.12 in 10.0 mi ESE 1.2 mph - N/A   Clear
4:58 AM 31.3 °F - 31.1 °F 99% 30.13 in 10.0 mi Calm Calm - N/A   Clear
5:58 AM 32.9 °F - 32.7 °F 99% 30.14 in 10.0 mi ESE 1.2 mph - N/A   Clear
6:58 AM 31.3 °F - 31.1 °F 99% 30.16 in 10.0 mi Calm Calm - N/A   Clear
7:58 AM 37.0 °F - 36.7 °F 99% 30.17 in 10.0 mi SSE 2.3 mph - N/A   Clear
8:58 AM 45.5 °F 41.8 °F 39.6 °F 80% 30.18 in 10.0 mi WNW 6.9 mph - N/A   Clear
9:58 AM 50.4 °F - 39.6 °F 66% 30.18 in 10.0 mi North 8.1 mph - N/A   Clear
10:58 AM 55.2 °F - 37.2 °F 51% 30.17 in 10.0 mi NNW 8.1 mph - N/A   Clear
11:58 AM 57.7 °F - 34.5 °F 42% 30.15 in 10.0 mi NNW 8.1 mph - N/A   Clear
12:58 PM 59.4 °F - 33.3 °F 37% 30.12 in 10.0 mi WNW 10.4 mph 17.3 mph N/A   Partly Cloudy
1:58 PM 58.3 °F - 34.7 °F 41% 30.10 in 10.0 mi NW 13.8 mph - N/A   Mostly Cloudy
2:58 PM 57.9 °F - 35.4 °F 43% 30.12 in 10.0 mi NW 15.0 mph - N/A   Overcast
3:58 PM 55.0 °F - 36.9 °F 50% 30.12 in 10.0 mi NNW 16.1 mph - N/A   Mostly Cloudy
4:58 PM 53.1 °F - 35.8 °F 52% 30.12 in 10.0 mi NNW 9.2 mph - N/A   Overcast
5:58 PM 51.4 °F - 35.4 °F 54% 30.12 in 10.0 mi NNW 6.9 mph - N/A   Mostly Cloudy
6:58 PM 49.5 °F - 35.2 °F 58% 30.12 in 10.0 mi NW 6.9 mph - N/A   Overcast
7:58 PM 48.7 °F - 33.4 °F 56% 30.15 in 10.0 mi NW 9.2 mph - N/A   Mostly Cloudy
8:58 PM 47.7 °F - 28.6 °F 48% 30.16 in 10.0 mi NW 12.7 mph - N/A   Overcast
9:58 PM 46.4 °F 40.7 °F 28.0 °F 49% 30.17 in 10.0 mi NNW 12.7 mph - N/A   Mostly Cloudy
10:58 PM 44.2 °F 38.8 °F 28.4 °F 54% 30.17 in 10.0 mi North 10.4 mph - N/A   Mostly Cloudy
11:58 PM 41.5 °F 37.8 °F 27.9 °F 58% 30.17 in 10.0 mi NNW 5.8 mph - N/A   Clear